[[{"header":{"parameterUnit":"m.s-1","parameterCategory":1,"la1":30.2991,"la2":30.254,"lo1":-89.0895,"lo2":-89.0444,"dy":0.0017,"dx":0.0017,"nx":28,"ny":28,"refTime":"2024-08-24T03:00:00:Z","depth":0,"parameterNumber":2,"parameterNumberName":"U-component_of_WINDS"},"data":[0,0,0,0,0,0,0,0,0,0,0,0,0,0,0,0,0,0,0,0,0,0,0,0,0,0,0,0,0,0,0,0,0,0,0,0,0,0,0,0,0,0,0,0,0,0,0,0,0,0,0,0,0,0,0,0,0,0,-3.0063,-3.0063,0,-3.0049,-3.0049,-3.0048,-2.9936,-2.9933,-2.993,-2.9928,-2.9915,-2.9917,-2.9919,0,0,0,0,0,0,0,0,0,0,0,0,0,-2.9997,-2.9999,-3.0063,-3.0063,-3.0063,-3.0049,-3.0049,-3.0048,-2.9936,-2.9933,-2.9929,-2.9926,-2.9914,-2.9917,-2.9919,0,0,0,0,0,0,0,0,0,0,0,0,0,-3.0009,-2.9999,-3.0063,-3.0005,-3.0,-3.0049,-3.0049,-3.0048,-2.9937,-2.9933,-2.9929,-2.9925,-2.9913,-2.9916,-2.992,-3.0024,0,0,-2.993,-2.9931,0,0,0,0,0,0,0,0,-3.0008,-3.0011,-3.0014,-3.0009,-3.0003,-2.999,-3.002,-3.004,-2.9938,-2.9961,-2.9927,-2.9923,-2.9943,-2.9944,-2.995,-3.0023,-3.0023,-2.993,-2.9932,-2.9934,-2.9935,0,0,0,0,0,0,0,-3.0007,-3.0011,-3.0058,-3.0014,-3.0008,-2.9981,-2.9978,-3.0024,-2.9976,-2.9959,-2.995,-2.995,-2.9939,-2.9947,-2.9949,-3.0023,-2.993,-2.9933,-2.9935,-2.9937,-3.0182,-3.0187,0,0,0,0,0,0,-3.0014,-3.0011,-3.0058,-3.0057,-2.9995,-2.9986,-2.9982,-2.9998,-2.9975,-2.9967,-2.9954,-2.9945,-2.9944,-2.9945,-2.9948,-3.0069,-2.9934,-2.9937,-2.9939,-3.0178,-3.0183,-3.0188,0,0,0,0,0,0,-3.0013,-3.002,-3.0059,-3.0032,-3.0035,-2.9991,-3.001,-3.0,-3.0008,-2.9971,-2.9962,-2.997,-2.994,-2.9944,-3.0006,-3.0067,-2.9938,-2.9941,-3.0173,-3.0179,-3.0186,-3.0312,0,0,0,0,0,0,-3.0012,-3.002,-3.0058,-3.0034,-3.0037,-3.0116,-3.0014,-3.0003,-3.0014,-3.0002,-2.9984,-2.9977,-2.9937,-3.0002,-3.001,-3.0069,-2.9944,-3.0167,-3.0176,-3.0184,-3.0302,-3.0322,-3.0339,0,0,0,0,0,-3.001,-3.0094,-3.0061,-3.0067,-3.0083,-3.012,-3.0121,-3.0073,-3.0019,-3.0058,-3.0035,-2.9978,-3.006,-3.0009,-3.0017,-3.0079,-3.0163,-3.0173,-3.0183,-3.0293,-3.0318,-3.0339,0,0,0,0,0,0,-3.0127,-3.009,-3.0052,-3.0131,-3.0129,-3.01,-3.0147,-3.01,-3.0114,-3.0103,-3.0043,-3.004,-3.0112,-3.0102,-3.0046,-3.0179,-3.0102,-3.0114,-3.0183,-3.0206,-3.0224,-3.0224,-2.9947,0,0,0,0,0,-3.0162,-3.0194,-3.016,-3.0233,-3.0234,-3.0192,-3.0205,-3.0169,-3.0165,-3.0164,-3.0145,-3.0144,-3.0169,-3.0187,-3.0209,-3.0301,-3.0296,-3.0347,-3.0366,-3.0381,-3.0392,-3.0441,-3.0464,-3.0221,-3.0221,-3.0221,0,0,-3.0234,-3.0218,-3.0242,-3.0256,-3.025,-3.0285,-3.0191,-3.0232,-3.0258,-3.017,-3.0227,-3.0215,-3.021,-3.0288,-3.0321,-3.0281,-3.0459,-3.0394,-3.0407,-3.0409,-3.0454,-3.0477,-3.0497,-3.0228,-3.0227,-3.0226,0,0,-3.0384,-3.0375,-3.0434,-3.0431,-3.0424,-3.0396,-3.0411,-3.039,-3.0377,-3.0435,-3.037,-3.0401,-3.0445,-3.0445,-3.0451,-3.0604,-3.0553,-3.0613,-3.0709,-3.0758,-3.0777,-3.0793,-3.0848,-3.0868,-3.0624,-3.0624,-3.0625,0,-3.0474,-3.0524,-3.0471,-3.0517,-3.0525,-3.0448,-3.0509,-3.0509,-3.051,-3.0518,-3.0474,-3.0529,-3.0521,-3.0598,-3.0636,-3.0643,-3.0659,-3.0613,-3.0778,-3.0794,-3.0809,-3.086,-3.0881,-3.0632,-3.0631,-3.063,-3.0629,0,-3.0636,-3.0672,-3.0721,-3.0724,-3.0738,-3.0791,-3.0748,-3.077,-3.0733,-3.071,-3.077,-3.0758,-3.0776,-3.0792,-3.0756,-3.0865,-3.084,-3.0788,-3.0709,-3.084,-3.0888,-3.0907,-3.0642,-3.0639,-3.0637,-3.0636,0,0,-3.0856,-3.083,-3.0849,-3.085,-3.0838,-3.0865,-3.0916,-3.0933,-3.0953,-3.0958,-3.0999,-3.104,-3.0992,-3.0999,-3.0963,-3.1006,-3.1129,-3.0949,-3.0948,-3.0982,-3.1249,-3.1287,-3.1311,-3.1096,-3.1099,-3.1102,-3.1249,0,-3.0999,-3.1082,-3.1038,-3.1128,-3.1161,-3.109,-3.1134,-3.1133,-3.1114,-3.114,-3.1119,-3.1149,-3.1083,-3.1087,-3.1126,-3.1106,-3.1181,-3.1095,-3.1134,-3.1136,-3.1136,-3.1335,-3.1376,-3.1514,-3.1267,-3.127,-3.1272,0,-3.1176,-3.1188,-3.1281,-3.1265,-3.1277,-3.1317,-3.1331,-3.1356,-3.1354,-3.1337,-3.1347,-3.1301,-3.1351,-3.1274,-3.1343,-3.1285,-3.1299,-3.1292,-3.1296,-3.1297,-3.1211,-3.1341,-3.1557,-3.1578,-3.1301,-3.1299,-3.1297,0,-3.1327,-3.1366,-3.1427,-3.143,-3.1413,-3.1443,-3.1437,-3.1431,-3.1445,-3.1457,-3.1466,-3.1485,-3.1495,-3.1511,-3.1473,-3.142,-3.1547,-3.1467,-3.1535,-3.1536,-3.1563,-3.1562,-3.1785,-3.1575,-3.1575,-3.1574,-3.1574,0,-3.149,-3.155,-3.1495,-3.1532,-3.1598,-3.1548,-3.1615,-3.1601,-3.1597,-3.1631,-3.1572,-3.1606,-3.1554,-3.1583,-3.1554,-3.1616,-3.1621,-3.161,-3.1601,-3.1614,-3.1616,-3.1621,-3.161,-3.158,-3.1578,-3.1577,-3.1576,0,-3.1668,-3.1634,-3.1695,-3.1674,-3.1671,-3.172,-3.1702,-3.1737,-3.1715,-3.176,-3.1767,-3.1733,-3.1765,-3.1729,-3.1758,-3.1738,-3.1822,-3.1799,-3.1822,-3.1815,-3.1886,-3.1879,-3.2119,-3.2148,-3.1921,-3.1923,-3.1925,0,-3.1774,-3.1818,-3.1803,-3.1821,-3.1819,-3.185,-3.1864,-3.1818,-3.1835,-3.1838,-3.1873,-3.1899,-3.1918,-3.1973,-3.1951,-3.1974,-3.1951,-3.2033,-3.1954,-3.1966,-3.1951,-3.1949,-3.1953,-3.2049,-3.2052,-3.2054,-3.2056,0,-3.1966,-3.1947,-3.1969,-3.1987,-3.2005,-3.2017,-3.2024,-3.2043,-3.1995,-3.2018,-3.205,-3.2065,-3.2095,-3.2123,-3.214,-3.2135,-3.2088,-3.2082,-3.2098,-3.2112,-3.2123,-3.2117,-3.1865,-3.2076,-3.2074,-3.2072,-3.2071,-3.207,-3.211,-3.2147,-3.2142,-3.2169,-3.217,-3.2178,-3.221,-3.2193,-3.2218,-3.2238,-3.221,-3.225,-3.2249,-3.2266,-3.2268,-3.2299,-3.2264,-3.2288,-3.2294,-3.2301,-3.2311,-3.2119,-3.2302,-3.2301,-3.2301,-3.23,-3.23,0,-3.2298,-3.2292,-3.2318,-3.233,-3.2352,-3.2307,-3.2313,-3.2335,-3.237,-3.2373,-3.2393,-3.2431,-3.2458,-3.244,-3.2463,-3.2492,-3.2471,-3.25,-3.2496,-3.2496,-3.2341,-3.2324,-3.2516,-3.2516,-3.2516,-3.2516,-3.2516,-3.2516,-3.2399,-3.2458,-3.244,-3.25,-3.2493,-3.2531,-3.2539,-3.2547,-3.2549,-3.2593,-3.2616,-3.2604,-3.2598,-3.2621,-3.2645,-3.2639,-3.265,-3.2686,-3.2673,-3.2528,-3.2507,-3.2487,-3.247,-3.269,-3.269,-3.2825,-3.2826,-3.2827]},{"header":{"parameterUnit":"m.s-1","parameterCategory":1,"la1":30.2991,"la2":30.254,"lo1":-89.0895,"lo2":-89.0444,"dy":0.0017,"dx":0.0017,"nx":28,"ny":28,"refTime":"2024-08-24T03:00:00:Z","depth":0,"parameterNumber":3,"parameterNumberName":"V-component_of_WINDS"},"data":[0,0,0,0,0,0,0,0,0,0,0,0,0,0,0,0,0,0,0,0,0,0,0,0,0,0,0,0,0,0,0,0,0,0,0,0,0,0,0,0,0,0,0,0,0,0,0,0,0,0,0,0,0,0,0,0,0,0,1.8044,1.8044,0,1.8057,1.8057,1.8057,1.8085,1.8086,1.8086,1.8087,1.8096,1.8096,1.8095,0,0,0,0,0,0,0,0,0,0,0,0,0,1.8043,1.8043,1.8044,1.8044,1.8045,1.8057,1.8057,1.8057,1.8085,1.8086,1.8087,1.8087,1.8096,1.8096,1.8095,0,0,0,0,0,0,0,0,0,0,0,0,0,1.8048,1.8043,1.8044,1.806,1.8062,1.8057,1.8057,1.8057,1.8085,1.8086,1.8087,1.8088,1.8096,1.8096,1.8095,1.8075,0,0,1.8094,1.8094,0,0,0,0,0,0,0,0,1.8048,1.8048,1.8058,1.8059,1.8061,1.807,1.806,1.8063,1.8085,1.8076,1.8087,1.8088,1.8087,1.8087,1.8087,1.8075,1.8075,1.8094,1.8094,1.8093,1.8093,0,0,0,0,0,0,0,1.8047,1.8048,1.8049,1.8058,1.806,1.8066,1.8068,1.806,1.8076,1.8077,1.8079,1.808,1.8088,1.8088,1.8088,1.8076,1.8094,1.8094,1.8093,1.8093,1.8047,1.8046,0,0,0,0,0,0,1.8045,1.8047,1.8049,1.8049,1.8056,1.8065,1.8067,1.8066,1.8076,1.8079,1.8079,1.8082,1.8088,1.8088,1.8088,1.8064,1.8093,1.8093,1.8093,1.8048,1.8047,1.8046,0,0,0,0,0,0,1.8045,1.8045,1.8048,1.8049,1.805,1.8064,1.8063,1.8066,1.8066,1.8078,1.8081,1.8077,1.8089,1.8089,1.8078,1.8065,1.8093,1.8092,1.8049,1.8048,1.8047,1.8017,0,0,0,0,0,0,1.8045,1.8045,1.8037,1.8049,1.805,1.8038,1.8062,1.8066,1.8066,1.8068,1.8076,1.8078,1.8089,1.8079,1.8078,1.8065,1.8092,1.8051,1.8049,1.8047,1.8019,1.8014,1.8011,0,0,0,0,0,1.8045,1.8027,1.8037,1.8037,1.8041,1.8038,1.8038,1.8052,1.8065,1.8057,1.8065,1.8078,1.8067,1.8077,1.8076,1.8063,1.8051,1.8049,1.8047,1.8021,1.8015,1.8011,0,0,0,0,0,0,1.8013,1.8029,1.804,1.8026,1.803,1.8043,1.8033,1.8046,1.8046,1.8048,1.8065,1.8066,1.8053,1.8057,1.8069,1.8044,1.8061,1.8059,1.8041,1.8036,1.8032,1.8031,1.8092,0,0,0,0,0,1.8004,1.8001,1.8016,1.8002,1.8004,1.8018,1.8017,1.8028,1.8033,1.8034,1.8041,1.8045,1.8042,1.804,1.8038,1.802,1.8022,1.8011,1.8007,1.8003,1.8,1.7991,1.7987,1.8039,1.8039,1.8039,0,0,1.7986,1.7995,1.7992,1.7996,1.8001,1.7996,1.8019,1.8014,1.801,1.8033,1.8024,1.8029,1.8034,1.802,1.8014,1.8023,1.7987,1.8001,1.7998,1.7997,1.7989,1.7984,1.7979,1.8038,1.8038,1.8038,0,0,1.7951,1.7958,1.7948,1.7952,1.796,1.797,1.7967,1.7978,1.7983,1.7974,1.7991,1.7987,1.7982,1.7985,1.7986,1.7954,1.7966,1.7953,1.7931,1.7922,1.7917,1.7914,1.7902,1.7897,1.795,1.795,1.795,0,1.7928,1.7923,1.794,1.7934,1.7935,1.7957,1.7946,1.795,1.7956,1.7956,1.7966,1.7961,1.7966,1.7953,1.7945,1.7945,1.7942,1.7951,1.7917,1.7913,1.791,1.7899,1.7894,1.7949,1.7949,1.7949,1.7949,0,1.7893,1.789,1.788,1.7887,1.7887,1.7878,1.7894,1.7892,1.7903,1.7912,1.7903,1.791,1.791,1.7908,1.7918,1.7896,1.7901,1.7914,1.7932,1.7903,1.7893,1.7889,1.7946,1.7947,1.7947,1.7948,0,0,1.7836,1.7854,1.7851,1.7854,1.7865,1.7862,1.7854,1.7856,1.7854,1.7858,1.7851,1.7847,1.786,1.7861,1.7872,1.7864,1.7838,1.7878,1.7878,1.7869,1.7814,1.7803,1.7798,1.7847,1.7846,1.7845,1.7813,0,1.7803,1.7792,1.7808,1.7793,1.779,1.7812,1.7805,1.7811,1.7819,1.7817,1.7826,1.7823,1.784,1.784,1.7834,1.7842,1.7826,1.7845,1.7839,1.7839,1.7836,1.7792,1.7781,1.775,1.7809,1.7808,1.7808,0,1.7762,1.7765,1.775,1.7763,1.7762,1.7756,1.7759,1.7757,1.7764,1.7771,1.7773,1.7786,1.7779,1.7798,1.7788,1.78,1.7799,1.7803,1.7802,1.7801,1.7821,1.7789,1.7741,1.7736,1.7802,1.7802,1.7803,0,1.7721,1.7722,1.7713,1.7716,1.773,1.7726,1.7731,1.7739,1.7739,1.7742,1.7742,1.7743,1.7744,1.7744,1.7758,1.777,1.7746,1.7765,1.775,1.775,1.7743,1.7743,1.7693,1.7744,1.7744,1.7744,1.7744,0,1.7681,1.7671,1.7695,1.769,1.7679,1.7698,1.7686,1.7694,1.7701,1.7697,1.7716,1.7712,1.7731,1.7728,1.7738,1.7728,1.7729,1.7733,1.7736,1.7731,1.773,1.7729,1.7731,1.7743,1.7743,1.7744,1.7744,0,1.7633,1.7649,1.7641,1.7656,1.766,1.7651,1.7664,1.7659,1.767,1.7664,1.7664,1.768,1.7678,1.7692,1.7692,1.7699,1.7684,1.7691,1.7681,1.7683,1.7667,1.7668,1.7613,1.7607,1.7663,1.7663,1.7662,0,1.7606,1.7599,1.7614,1.7613,1.7619,1.7617,1.7618,1.7637,1.7636,1.7644,1.7638,1.7639,1.7639,1.7635,1.7646,1.7646,1.7653,1.7634,1.7653,1.7648,1.7651,1.7651,1.765,1.7629,1.7628,1.7628,1.7627,0,1.7556,1.7565,1.7566,1.757,1.7571,1.7574,1.7579,1.7577,1.7598,1.7597,1.7596,1.7596,1.7598,1.7597,1.76,1.7605,1.7619,1.7622,1.7618,1.7612,1.7607,1.7608,1.7669,1.7622,1.7623,1.7623,1.7623,1.7624,1.7517,1.7512,1.7522,1.7523,1.7529,1.7533,1.753,1.7541,1.7541,1.7544,1.7555,1.7552,1.7559,1.7565,1.7569,1.7566,1.7575,1.757,1.7569,1.7567,1.7564,1.7608,1.7567,1.7567,1.7567,1.7568,1.7568,0,1.7467,1.7476,1.7476,1.7483,1.7484,1.7499,1.7506,1.7505,1.7502,1.7509,1.751,1.7509,1.7509,1.7521,1.7522,1.7518,1.7524,1.7517,1.7517,1.7518,1.7556,1.7558,1.7512,1.7512,1.7512,1.7512,1.7512,1.7512,1.7442,1.7434,1.7444,1.7439,1.7447,1.7445,1.7448,1.7452,1.7457,1.7456,1.7456,1.7465,1.7473,1.7476,1.7476,1.748,1.7479,1.7469,1.7475,1.751,1.7515,1.752,1.7523,1.7469,1.7469,1.7437,1.7436,1.7436]}]]